Yauhen Sivakov

Olheiro-Chefe - Dinamo Brest
2 Jul 2028
Domingo
Processo

Personalidade

Adaptabilidade (8) Ambição (17) Controvérsia (10) Lealdade (6) Pressão (13) Profissionalismo (18) Espírito Esportivo (6) Temperamento (2)

Perfil

Estilo de Treinamento Democrático
Licença Continental C
Determinação 7
Gestão de Pessoas 10
Motivação 4
Disciplina 9
Satisfação no Trabalho
100%
Fadiga
0%
Função Olheiro-Chefe
Salário 65.9K p/s
Contrato 14.03.2030

Desempenho

Comportamento Bom
Eficácia do Treinamento
31%
Desenvolvimento do Jogador
20%
Prevenção de Lesões
25%
Implementação Tática
50%

Eventos Recentes

Participou de uma reunião de recrutamento agora
Recomendou um alvo de transferência agora
Participou de uma reunião de recrutamento 7d atrás
Recomendou um alvo de transferência 7d atrás
Recomendou um alvo de transferência 7d atrás
Recomendou um alvo de transferência 7d atrás
Avaliou um jogador 14d atrás
Avaliou um jogador 14d atrás

Monitorando agora

107
Jogador Clube Status Habilidade Confiança Observado Última observação Último voto
Vladislav Fezhenko Uni-X Labs Relatório pronto 79 / 85 69% 1 26.06.2028 -
Ilja Safronov Rotor Ativo 108 / 109 40% 4 14.06.2028 -
Tyler Roberts Mansfield Town Ativo 97 / 116 40% 1 14.06.2028 -
Admir Bristrić Cambridge United Ativo 116 / 129 40% 1 14.06.2028 -
Stephen Humphrys Bradford City Ativo 119 / 126 40% 1 13.06.2028 -
Olaf Kobacki Sheffield Wednesday Ativo 114 / 124 40% 1 13.06.2028 -
Aaron Collins Milton Keynes Dons Ativo 131 / 104 40% 1 13.06.2028 -
Vladislav Zvyagov Slonim Ativo 69 / 72 30% 1 / 1m 05.04.2028 -
Jan Eicher Slonim Ativo 93 / 96 30% 1 / 1m 05.04.2028 -
Mirkomil Murodov Orsha Ativo 77 / 82 30% 1 / 1m 05.04.2028 -
Emin Garayev Volna Pinsk Ativo 53 / 53 30% 1 / 1m 05.04.2028 -
Alfred Mazurich Lida Ativo 86 / 102 65% 1 25.01.2028 Aprovar
Daniel Barrea Godoy Cruz Ativo 125 / 126 40% 1 25.01.2028 -
Miro Arsenal Tula Ativo 116 / 105 40% 1 25.01.2028 -
Egas Cacintura Akhmat Grozny Ativo 117 / 131 40% 1 25.01.2028 -
Žiga Pečjak Olimpija Ljubljana Ativo 105 / 110 52% 1 / 1m 24.11.2027 -
Maxim Mardas Molodechno Ativo 70 / 75 42% 1 / 1m 28.07.2027 -
Maxim Yablonskiy Molodechno Ativo 91 / 91 30% 1 / 1m 28.07.2027 -
Kirill Premudrov Torpedo-BelAZ Ativo 82 / 94 65% 1 19.07.2027 Aprovar
Dardan Shabanhaxhaj Rubin Ativo 124 / 112 40% 3 13.06.2027 -
Mohamed Konaté Akhmat Grozny Ativo 111 / 107 40% 4 13.06.2027 -
Ales Sakhonchik BATE Ativo 82 / 87 30% 1 / 1m 02.06.2027 -
Alexandr Grin Ostrovets Ativo 69 / 72 30% 1 / 1m 31.03.2027 -
Roman Seredyuk Ostrovets Ativo 61 / 66 30% 1 / 1m 31.03.2027 -
Vladimir Khubulov Dinamo Makhachkala Ativo 106 / 97 40% 2 25.01.2027 -
François Kamano Sochi Ativo 113 / 119 40% 1 25.01.2027 -
Brayan Gil Baltika Ativo 124 / 127 40% 3 24.01.2027 -
Jacques Siwe Rubin Ativo 123 / 116 40% 5 24.01.2027 -
Alexey Kashtanov Torpedo Moscow Ativo 102 / 109 40% 1 24.01.2027 -
Anton Mitryushkin Lokomotiv Moscow Ativo 112 / 106 40% 2 22.01.2027 -
Rostislav Soldatenko Torpedo Moscow Ativo 99 / 98 40% 2 21.01.2027 -
Bogdan Ovsyannikov Orenburg Ativo 106 / 104 40% 5 20.01.2027 -
Rustam Yatimov Rostov Ativo 110 / 111 40% 1 20.01.2027 -
Maxim Borisko CSKA Moscow Ativo 129 / 126 40% 1 20.01.2027 -
Petr Kosarevskiy Sibir Ativo 95 / 113 40% 2 18.01.2027 -
Igor Obukhov Fakel Ativo 99 / 92 40% 1 18.01.2027 -
Nikita Kakkoev Nizhniy Novgorod Ativo 112 / 113 40% 3 15.01.2027 -
Sergey Volkov Rodina Ativo 102 / 111 40% 1 15.01.2027 -
Veldin Hodža Rubin Ativo 119 / 132 40% 1 15.01.2027 -
Mihajlo Banjac Krylya Sovetov Ativo 115 / 111 40% 1 15.01.2027 -
Pedro Rocha Juventude Ativo 122 / 134 40% 2 13.01.2027 -
Denis Yakuba Dinamo Stavropol Ativo 95 / 92 40% 1 12.01.2027 -
Vyacheslav Yakimov Fakel Ativo 110 / 111 40% 1 12.01.2027 -
Mikhail Ignatov Sochi Ativo 110 / 126 40% 3 11.01.2027 -
Chinedu Geoffrey Krylya Sovetov Ativo 121 / 102 40% 2 11.01.2027 -
Ilja Pomazun Spartak Moscow Ativo 115 / 106 40% 4 11.01.2027 -
Eldar Ćivić Baltika Ativo 126 / 121 40% 1 09.01.2027 -
Alan Tsaraev Arsenal Tula Ativo 101 / 112 40% 1 09.01.2027 -
Stefan Lončar Akron Ativo 120 / 127 40% 1 09.01.2027 -
Martin Zlomislić Qarabag Ativo 131 / 99 40% 2 08.01.2027 -
Nikita Chagrov Rotor Ativo 104 / 90 40% 2 08.01.2027 -
Vladislav Sarveli Nizhniy Novgorod Ativo 102 / 118 40% 2 06.01.2027 -
Igor Leschuk Dinamo Moscow Ativo 119 / 111 40% 1 06.01.2027 -
Victor Melekhin Rostov Ativo 126 / 120 40% 1 02.01.2027 -
Yegor Danilkin Rotor Ativo 97 / 110 40% 1 02.01.2027 -
Ilja Tuseev Chelyabinsk Ativo 89 / 106 40% 1 01.01.2027 -
Chinonso Offor Baltika Ativo 103 / 119 40% 2 28.12.2026 -
Job Ochieng Real Sociedad Ativo 118 / 91 40% 3 27.12.2026 -
Dmitry Tsypchenko Nizhniy Novgorod Ativo 100 / 106 40% 2 27.12.2026 -
Maksim Samorodov Akhmat Grozny Ativo 116 / 110 40% 2 20.12.2026 -
Alexandre Jesus Orenburg Ativo 103 / 111 40% 1 20.12.2026 -
Martin Sekulić Ural Ativo 119 / 105 40% 2 18.12.2026 -
Vitaly Gudiev Akron Ativo 102 / 97 40% 1 12.12.2026 -
Edgardo Fariña Nizhniy Novgorod Ativo 110 / 110 40% 1 11.12.2026 -
Dmitry Skopintsev Dinamo Moscow Ativo 117 / 121 40% 1 11.12.2026 -
Ruslan Apekov Torpedo Moscow Ativo 113 / 101 40% 2 10.12.2026 -
Stefan Kovač Baltika Ativo 116 / 118 40% 2 06.12.2026 -
Vyacheslav Grulev Nizhniy Novgorod Ativo 107 / 123 40% 2 06.12.2026 -
Danil Lipovoy Ufa Ativo 104 / 87 40% 1 05.12.2026 -
Konstantin Shiltsov Baltika Ativo 106 / 114 40% 1 05.12.2026 -
Vladislav Galkin Veles Ativo 97 / 84 40% 1 04.12.2026 -
Ugochukwu Iwu Rubin Ativo 121 / 131 40% 1 02.12.2026 -
Kirill Kolesnichenko Volgar Ativo 96 / 99 40% 1 02.12.2026 -
Daniil Rodin Leningradets Ativo 89 / 93 40% 1 25.11.2026 -
Arsen Adamov Akhmat Grozny Ativo 125 / 111 40% 1 20.11.2026 -
Tenton Yenne Baltika Ativo 117 / 103 40% 1 18.11.2026 -
Igor Shkolik SKA Khabarovsk Ativo 96 / 92 40% 1 16.11.2026 -
Artemy Kosogorov Shinnik Ativo 89 / 83 40% 1 16.11.2026 -
Danil Stepanov Torpedo Moscow Ativo 106 / 98 40% 1 16.11.2026 -
Migran Ageyan Ufa Ativo 100 / 100 40% 1 15.11.2026 -
Lechi Sadulaev Akhmat Grozny Ativo 123 / 134 40% 1 13.11.2026 -
Andrey Nikitin Neftekhimik Ativo 93 / 82 40% 1 12.11.2026 -
Nikita Yermakov Nizhniy Novgorod Ativo 102 / 108 40% 1 12.11.2026 -
Đorđe Pantelić Spartak Kostroma Ativo 109 / 105 40% 1 11.11.2026 -
Temirkan Sundukov Dinamo Makhachkala Ativo 105 / 107 40% 1 11.11.2026 -
Luca Connell Barnsley Ativo 109 / 93 40% 2 10.11.2026 -
Jay Matete Milton Keynes Dons Ativo 111 / 99 40% 2 06.11.2026 -
Lander Astiazarán Real Sociedad Ativo 115 / 94 40% 1 05.11.2026 -
Daniel Kyerewaa Reading Ativo 105 / 108 40% 3 04.11.2026 -
Jáder Valencia Deportes Tolima Ativo 101 / 133 40% 2 04.11.2026 -
Andrei Cordea CFR Cluj Ativo 122 / 111 40% 1 01.11.2026 -
Tobías Bovone Deportivo Pereira Ativo 102 / 127 40% 1 09.10.2026 -
Fawaz Abdullahi Dinamo Minsk Ativo 103 / 94 40% 1 09.10.2026 -
Daniil Silinskiy Gomel Ativo 103 / 102 40% 1 05.10.2026 -
Guljigit Alykulov Dinamo Minsk Ativo 99 / 107 40% 1 05.10.2026 -
Sebastián Ribas Ativo 109 / 109 52% 1 / 1m 23.09.2026 -
Oumare Tounkara Ativo 105 / 105 30% 1 / 1m 23.09.2026 -
Eli King Gillingham Ativo 101 / 118 40% 1 07.09.2026 -
Maksym Shevchenko Baranovichi Ativo 86 / 89 30% 1 / 1m 19.08.2026 -
Arseniy Zhukovskiy Slonim Ativo 80 / 85 30% 1 / 1m 12.08.2026 -
Egor Petrov Slonim Ativo 72 / 77 30% 1 / 1m 12.08.2026 -
Denis Khvostovich Volna Pinsk Ativo 86 / 86 42% 1 / 1m 12.08.2026 -
Andrey Potapenko Dnepr Mogilev Ativo 85 / 85 30% 1 / 1m 12.08.2026 -
Stanislav Stefanovich Baranovichi Ativo 82 / 85 30% 1 / 1m 12.08.2026 -
Martin Artyukh Baranovichi Ativo 97 / 90 65% 1 03.08.2026 Aprovar
Lucas González Nacional Ativo 99 / 103 40% 1 03.08.2026 -
Jonathan Okoronkwo Torpedo Moscow Ativo 105 / 103 40% 1 01.08.2026 -